Location: Dumpton Point
(51.3500°N, 1.4433°E)
Time: 16:04:08
(UTC+00:00)

Tiros 1 - All Passes

Search period start: 07 October 2022 00:00
Search period end: 17 October 2022 00:00
Orbit: 629 x 663 km, 48.4° (Epoch: 07 October)

Date Brightness Start Highest point End Pass type
(mag) Time Alt. Az. Time Alt. Az. Time Alt. Az.
07 Oct - 01:32:31 10° W 01:37:13 54° SSW 01:41:51 10° ESE night (unlit)
07 Oct - 03:14:53 10° W 03:18:49 26° SSW 03:22:44 10° SSE visible
07 Oct - 20:54:13 10° S 20:57:29 18° SE 21:00:44 10° E night (unlit)
07 Oct - 22:34:19 10° SW 22:38:54 45° SSE 22:43:29 10° E night (unlit)
08 Oct - 00:16:02 10° W 00:20:48 62° S 00:25:31 10° ESE night (unlit)
08 Oct - 01:58:08 10° W 02:02:39 41° SSW 02:07:06 10° SE night (unlit)
08 Oct - 03:41:13 10° WSW 03:43:57 15° SW 03:46:41 10° S visible
08 Oct - 21:18:30 10° SSW 21:22:40 30° SSE 21:26:50 10° E night (unlit)
08 Oct - 22:59:39 10° WSW 23:04:22 57° S 23:09:05 10° E night (unlit)
09 Oct - 00:41:36 10° W 00:46:19 56° S 00:50:59 10° ESE night (unlit)
09 Oct - 02:23:56 10° W 02:27:58 27° SSW 02:31:58 10° SSE night (unlit)
09 Oct - 20:03:33 10° S 20:06:38 17° SE 20:09:42 10° ESE night (unlit)
09 Oct - 21:43:27 10° SW 21:48:01 43° SSE 21:52:34 10° E night (unlit)
09 Oct - 23:25:08 10° W 23:29:53 62° S 23:34:38 10° E night (unlit)
10 Oct - 01:07:13 10° W 01:11:46 43° SSW 01:16:16 10° SE night (unlit)
10 Oct - 02:50:09 10° WSW 02:53:07 16° SW 02:56:04 10° S night (unlit)
10 Oct - 20:27:42 10° SSW 20:31:47 28° SSE 20:35:53 10° E visible
10 Oct - 22:08:45 10° WSW 22:13:27 56° S 22:18:10 10° E night (unlit)
10 Oct - 23:50:41 10° W 23:55:24 57° S 00:00:06 10° ESE night (unlit)
11 Oct - 01:32:57 10° W 01:37:05 29° SSW 01:41:11 10° SSE night (unlit)
11 Oct - 19:12:54 10° S 19:15:46 16° SE 19:18:38 10° ESE visible
11 Oct - 20:52:35 10° SW 20:57:07 42° SSE 21:01:39 10° E visible
11 Oct - 22:34:13 10° W 22:38:58 62° S 22:43:43 10° E night (unlit)
12 Oct - 00:16:17 10° W 00:20:51 45° SSW 00:25:25 10° SE night (unlit)
12 Oct - 01:59:05 10° W 02:02:16 18° SW 02:05:25 10° S night (unlit)
12 Oct - 19:36:55 10° SSW 19:40:54 27° SSE 19:44:55 10° E visible
12 Oct - 21:17:51 10° WSW 21:22:33 55° SSE 21:27:15 10° E visible
12 Oct - 22:59:45 10° W 23:04:29 58° S 23:09:12 10° ESE night (unlit)
13 Oct - 00:41:59 10° W 00:46:12 31° SSW 00:50:23 10° SSE night (unlit)
13 Oct - 18:22:17 10° S 18:24:54 15° SE 18:27:32 10° ESE visible
13 Oct - 20:01:43 10° SW 20:06:12 40° SSE 20:10:42 10° E visible
13 Oct - 21:43:17 10° WSW 21:48:03 62° S 21:52:48 10° E visible
13 Oct - 23:25:20 10° W 23:29:57 46° SSW 23:34:32 10° SE night (unlit)
14 Oct - 01:08:02 10° W 01:11:24 19° SW 01:14:44 10° S night (unlit)
14 Oct - 18:46:08 10° SSW 18:50:01 25° SSE 18:53:56 10° E visible
14 Oct - 20:26:56 10° WSW 20:31:37 54° SSE 20:36:19 10° E visible
14 Oct - 22:08:49 10° W 22:13:34 59° S 22:18:18 10° ESE night (unlit)
14 Oct - 23:51:01 10° W 23:55:18 32° SSW 23:59:33 10° SE night (unlit)
15 Oct - 01:36:14 10° SW 01:36:24 10° SW 01:36:36 10° SW night (unlit)
15 Oct - 17:31:43 10° SSE 17:34:02 14° SE 17:36:22 10° ESE visible
15 Oct - 19:10:52 10° SW 19:15:17 38° SSE 19:19:45 10° E visible
15 Oct - 20:52:22 10° WSW 20:57:07 62° S 21:01:52 10° E visible
15 Oct - 22:34:24 10° W 22:39:02 48° SSW 22:43:39 10° ESE night (unlit)
16 Oct - 00:17:00 10° W 00:20:31 20° SW 00:24:00 10° SSE night (unlit)
16 Oct - 17:55:20 10° SSW 17:59:08 24° SSE 18:02:56 10° E visible
16 Oct - 19:36:02 10° WSW 19:40:41 52° SSE 19:45:22 10° E visible
16 Oct - 21:17:53 10° W 21:22:38 60° S 21:27:22 10° ESE visible
16 Oct - 23:00:03 10° W 23:04:24 34° SSW 23:08:43 10° SE night (unlit)
